Content
SEND FEEDBACK

Daily
Averages
Monthly
Summary
United States of America

NEW YORK - CENTRAL PARK, NEW YORK


Home > North America > United States > New York
Elevation: 14 feet     Latitude: 40 47N     Longitude: 073 58W

WEATHER
 
SELECT A DAY
Number of Records: 152,969;   Date Range: 11/1/95 - 12/17/14
 
SHARE

PRINT THIS DATA

[ ← Previous Day ]
WEATHER ALMANAC - APRIL 28, 2014
[ Next Day → ]
[ °C ]   °F
Weather ElementAverageHighLow
Temperature55.2 °F64.9 °F (2:51 pm)46 °F (4:51 am)
Dewpoint32.9 °F37.9 °F (11:51 pm)25 °F (5:51 pm)
Humidity45.3 %66 % (4:51 am)23 % (5:51 pm)
Barometer30.08 in30.13 in (11:51 pm)30.01 in (3:51 pm)
Wind Speed4 mph10.4 mph (1:51 am)
Weather ElementAverage
Visibility10 mi
Wind DirectionENE (57 °)

Weather ElementTotal
Precipitation---
Heating Degree Days9.6 (Base 65)
Growing Degree Days5.5 (Base 50)
Averaged from 23 records on April 28, 2014
WEATHER CONDITIONS BREAKOUT
WIND DIRECTION BREAKOUT
WEATHER BY HOUR - APRIL 28, 2014
[ °C ]   °F
Local TimeTemperatureDewpointHumidityBarometerVisibilityWind DirectionWind SpeedGust SpeedPrecipitationEventsConditions
1:51 AM48.9 °F35.1 °F59 %30.09 in10.0 miNNE (30°)10.4 mphClear
2:51 AM48.0 °F35.1 °F61 %30.09 in10.0 miNNE (20°)9.2 mphClear
3:51 AM46.9 °F35.1 °F63 %30.08 in10.0 miNorthClear
4:51 AM46.0 °F35.1 °F66 %30.09 in10.0 miCalmClear
5:51 AM46.0 °F35.1 °F66 %30.10 in10.0 miCalmClear
6:51 AM46.0 °F35.1 °F66 %30.12 in10.0 miCalmClear
7:51 AM46.9 °F34.0 °F61 %30.12 in10.0 miCalmClear
8:51 AM50.0 °F34.0 °F54 %30.12 in10.0 miVariable4.6 mphClear
9:51 AM54.0 °F33.1 °F45 %30.11 in10.0 miVariable5.8 mphClear
10:51 AM57.0 °F32.0 °F39 %30.10 in10.0 miNorth (350°)6.9 mphClear
11:51 AM57.0 °F30.9 °F37 %30.08 in10.0 miCalmClear
12:51 PM61.0 °F32.0 °F34 %30.05 in10.0 miVariable3.5 mphClear
1:51 PM63.0 °F32.0 °F31 %30.04 in10.0 miNorthClear
2:51 PM64.9 °F30.9 °F28 %30.03 in10.0 miVariable4.6 mphClear
3:51 PM64.0 °F30.0 °F28 %30.01 in10.0 miENE (70°)9.2 mphClear
4:51 PM64.0 °F26.1 °F24 %30.02 in10.0 miVariable3.5 mphClear
5:51 PM64.0 °F25.0 °F23 %30.02 in10.0 miCalmClear
6:51 PM61.0 °F30.0 °F31 %30.03 in10.0 miSouth (170°)4.6 mphClear
7:51 PM57.9 °F34.0 °F41 %30.05 in10.0 miSouth (190°)3.5 mphClear
8:51 PM57.0 °F34.0 °F42 %30.07 in10.0 miSouth (170°)4.6 mphClear
9:51 PM57.0 °F35.1 °F44 %30.09 in10.0 miSSE (160°)4.6 mphClear
10:51 PM55.9 °F35.1 °F45 %30.10 in10.0 miCalmClear
11:51 PM54.0 °F37.9 °F55 %30.13 in10.0 miSSE (150°)9.2 mphClear
Hourly data recorded from KNYC, located miles away from New York - Central Park, New York







STORIES FROM OUR PARTNERS